loading
|

SCOUT X-4 R/B, 933

Orbit data source: Space-Track

SCOUT X-4 R/B, 933 is space debris in LEO originally from a launch on Sat, 21 Nov 1964 UTC launched from the Air Force Western Test Range (AFWTR). Debris objects in space refer to the collection of defunct objects orbiting the Earth. Examples of debris include non-operational satellites, rocket bodies, and fragments generated from explosions, collisions, or faulty payload assembly.

Loading next visibility...
Loading greatness...
SCOUT X-4 R/B details
Identifier
933, 1964-076C
Orbit
LEO
Last TLE update11 hours ago
Origin
Flag of USNASA LaRC (US)
ManufacturerABL
Mission statusUnknown
MissionUnknown
Bus & MotorALTAIR, Unknown motor
Mass33 kg wet, 33 kg dry
Launch date (UTC)
1964-11-21 (60 years ago)
Launch vehicleUnknown
Launch site
Air Force Western Test Range (AFWTR)
Object type
Payload
Rocket body
Debris
Radar Cross Section0.61 m², Medium (>0.1 m² and < 1m²)

Expand to show TLE details & history

TLE from 11 hours ago
0 SCOUT X-4 R/B
1 00933U 64076C   24258.80095474  .00003376  00000-0  11333-2 0  9998
2 00933  81.3345 295.0091 1059129  42.4837 325.3475 12.80419686754541
Epoch: 2024-09-14T19:13Z
Definitive object data (Epoch: 2024-09-14T19:13:22.489Z)
Latitude-0.00005°
Longitude12.41192°
Altitude701.982 km
Speed7.81 km/s
True Right ascension19h 40m 02s
True Declination0° 00' 00"
Sunlit
Object was in full shadow at TLE epoch
Predictive object data (real-time)
Latitude-73.4407°
Longitude-137.25906°
Altitude2,012.331 km
Speed6.598 km/s
Apparent Right ascension10h 16m 45s
Apparent Declination-59° 02' 29"
Sunlit
Object is in daylight
Predictive observer data (real-time)
Local Sidereal Time22:34:01
Azimuth173.277° S
Elevation-70.68°
Doppler factor1
Orbital elements
Apogee2,154.226 km
Perigee519.943 km
Semi-major axis7,715.221 km
Eccentricity0.1059129
Inclination81.3345°
RAAN295.0091°
Arg. of periapsis42.4837°
True anomaly317.63159°
Mean anomaly325.3475°
Eccentric anomaly321.57617°
Mean motion3.20273 °/min
BSTAR0.0011333
Period112.4 mins
No data available

SCOUT X-4 R/B Visibility forecast

Observer location: 39.9160978°, -105.1181434

SCOUT X-4 R/B is not visible in the next 10 days
Span
Click to sort rows by Start time (UTC) header in descending order
Start Az.
Max El. time (UTC)
Max El. Az.
Max El.
End time (UTC)
End Az.